Weather in Legostayevo

Russia / Krasnoyarsk Krai     55°08′00″N   91°01′36″E
temp.,
°C
wind,
m/s
gust,
m/s
humid.,
%
clouds,
%
prec.,
mm/h
press.,
hPa
HPBL,
m
14 june, mon
mon1401:00+11wnw4897100 5.3 1011616
04:00+11wnw3798100 0.4 1011568
07:00+9nnw599247 0.5 1014531
10:00+12nnw68640 0.0 10161108
13:00+15nnw67525 0.0 10161797
16:00+16nnw67495 0.0 10161983
19:00+15nnw3659100 0.0 10171122
22:00+11wnw226497 0.0 101814
15 june, tue
tue1501:00+8w22765 0.0 101911
04:00+7wsw11835 0.0 101910
07:00+11wsw11725 0.0 1019141
10:00+16w235713 0.0 1018995
13:00+18wnw344579 0.0 10172137
16:00+18wnw445391 0.0 10161739
19:00+15nw3676100 0.1 1017172
22:00+12wnw1186100 0.1 101611
16 june, wed
wed1601:00+11s2597100 2.7 1016168
04:00+11sse2797100 1.1 1015306
07:00+11s2796100 2.7 1015269
10:00+16ssw448197 0.0 1015477
13:00+19ssw457070 0.2 1014960
16:00+20s567325 0.7 1012699
19:00+18s5786100 4.9 1012170
22:00+14s4994100 0.5 1012205
17 june, thu
thu1701:00+12ssw36963 0.5 1012103
04:00+12ssw35962 0.0 101199
07:00+15ssw479099 0.0 1010204
10:00+19ssw5779100 0.4 1009527
13:00+20sw5875100 0.6 1009845
16:00+23wnw476039 0.0 10071386
19:00+19wsw3482100 4.2 100781
22:00+15s349268 0.3 100753
18 june, fri
fri1801:00+13s2295100 1.3 100627
04:00+13sw3597100 2.8 1005115
07:00+14s3896100 4.1 1004344
10:00+18ssw568690 1.3 1003748
13:00+20w677523 3.9 10021236
16:00+19wnw79665 0.9 10031284
19:00+17nw598175 1.4 1003737
22:00+14wnw2392100 0.3 100465